www.pogodaiklimat.ru

Погода и климат >> Архив погоды >> Хорватия >> Осиек-Чепин


ПОГОДА в Осиек-Чепине

  • Прогноз погоды в Осиек-Чепине
  • Монитор погоды в Осиек-Чепине

АРХИВ ПОГОДЫ в Осиек-Чепине

Время (UTC), дата Ветер
(напр.,м/с)
 
Видим.   Явления Облачность Т
(С)
Тd
(С)
f
(%)
Тe
(С)
Тes
(С)
Комфортность P
(гПа)
Po
(гПа)
Тmin
(С)
Tmax
(С)
R
(мм)
R24
(мм)
S
(см)
06 13.09 З 2 10 км ясно +15.5 +12.9 84 +15 +17 1029.6 1018.8 +12.0
09 13.09 СЗ 3 15 км ясно +23.4 +13.0 52 +26 +34 жарко 1029.5 1019.0
12 13.09 СЗ 3 15 км 3/3 1000 м
[Cu hum]
+26.4 +11.2 39 +28 +34 жарко 1028.1 1017.7
15 13.09 СЗ 3 15 км 3/3 1000 м
[Cu hum]
+26.8 +11.3 38 +28 +29 жарко 1026.9 1016.6
18 13.09 СЗ 1 10 км 8/0
[Ac As]
+20.8 +14.0 65 +25 +25 комфорт 1027.4 1016.9 +27.2
21 13.09 З 1 10 км ясно +16.0 +13.3 84 +17 +17 1028.4 1017.7
00 14.09 СЗ 1 10 км ясно +14.0 +12.6 91 +14 +14 1028.4 1017.6
03 14.09 З 1 10 км 3/0
[Ac trans]
+14.2 +12.8 91 +14 +14 1028.0 1017.2
06 14.09 СЗ 1 10 км ясно +16.4 +14.1 86 +17 +19 1028.5 1017.8 +13.5
09 14.09 СЗ 2 10 км ясно +23.6 +13.2 52 +26 +35 жарко 1028.3 1017.8
12 14.09 С 2 10 км 4/3 1000 м
[Cu hum Ci fib]
+26.4 +11.8 40 +28 +35 жарко 1027.2 1016.9
15 14.09 СВ 2 10 км 6/0
[Ac und]
+26.4 +10.5 37 +27 +29 жарко 1025.9 1015.6
18 14.09 С 1 10 км 5/1 1000 м
[Sc Ac trans Ci fib]
+20.7 +14.1 66 +24 +24 комфорт 1026.5 1016.0 +27.6
21 14.09 С 1 10 км ясно +16.5 +13.5 82 +17 +17 1027.7 1017.0
00 15.09 СЗ 1 10 км 3/0
[Ci fib]
+13.7 +11.6 87 +14 +14 1028.0 1017.2
03 15.09 СЗ 1 10 км ясно +11.5 +9.6 88 +11 +11 1027.8 1016.9
06 15.09 СВ 1 10 км ясно +13.7 +9.7 77 +14 +16 1027.4 1016.6 +10.8
09 15.09 СЗ 1 10 км ясно +21.3 +9.2 46 +23 +33 комфорт 1027.1 1016.6
12 15.09 В 2 10 км ясно +25.3 +10.1 38 +26 +36 жарко 1025.0 1014.6
15 15.09 СВ 1 10 км ясно +26.3 +10.0 36 +27 +30 жарко 1022.6 1012.3
18 15.09 В 1 10 км ясно +20.1 +12.8 63 +23 +23 комфорт 1021.9 1011.4 +26.5
21 15.09 ЮВ 1 10 км ясно +16.1 +13.2 83 +17 +17 1021.9 1011.2
00 16.09 С 1 10 км ясно +12.8 +11.9 94 +13 +13 1021.5 1010.7
03 16.09 ЮВ 1 10 км ясно +11.2 +10.5 95 +11 +11 1020.6 1009.8
06 16.09 ЮЗ 1 10 км ясно +12.6 +11.5 93 +13 +14 1020.3 1009.5 +10.7
09 16.09 З 1 10 км ясно +24.2 +13.2 50 +26 +37 жарко 1019.1 1008.8
12 16.09 З 1 15 км ясно +28.0 +10.4 33 +28 +40 жарко 1017.1 1006.9
15 16.09 СЗ 2 15 км ясно +29.2 +9.0 28 +29 +31 жарко 1015.1 1005.0
18 16.09 В 1 10 км 4/0
[Cs]
+21.2 +9.8 48 +23 +23 комфорт 1015.1 1004.7 +29.6
21 16.09 Ю 1 10 км ясно +17.1 +14.0 82 +18 +18 1015.2 1004.7
00 17.09 ЮЗ 1 10 км 4/0
[Ac trans Cs]
+15.4 +13.0 86 +16 +16 1014.6 1004.0
03 17.09 СЗ 1 10 км 3/0
[Cs]
+13.2 +11.7 91 +13 +13 1015.1 1004.3
06 17.09 ЮЗ 1 10 км 8/0
[Ac und]
+15.0 +13.3 90 +15 +16 1014.4 1003.8 +13.0
09 17.09 СВ 1 10 км 6/3 1500 м
[Sc Ac und]
+23.4 +14.9 59 +27 +33 душно 1014.8 1004.5
12 17.09 СВ 1 10 км 8/3 1500 м
[Sc Ac und]
+27.5 +11.3 36 +28 +32 жарко 1013.3 1003.1
15 17.09 В 2 10 км 4/3 1000 м
[Sc Ac cast]
+27.5 +13.2 41 +29 +31 жарко 1011.9 1001.7
18 17.09 СВ 1 10 км 6/0
[Ac As]
+22.7 +12.6 53 +25 +25 комфорт 1011.8 1001.5 +28.6
21 17.09 СВ 2 10 км 8/0
[Ac As]
+19.2 +13.1 68 +21 +21 комфорт 1013.1 1002.6
00 18.09 СВ 2 10 км 10/0
[As op]
+18.9 +15.0 78 +21 +21 комфорт 1014.9 1004.4
03 18.09 С 1 10 км слаб. дождь 10/4 600 м
[St As op]
+16.4 +14.1 86 +17 +17 1017.1 1006.5
06 18.09 СВ 2 10 км в посл. час дождь 10/5 600 м
[St As op]
+15.1 +11.4 79 +15 +15 1020.4 1009.7 +14.8 0.8
09 18.09 С 1 15 км {дождь} 10/8 1000 м
[Sc As op]
+15.9 +6.2 52 +17 +17 1022.6 1011.9
12 18.09 СЗ 1 20 км 10/8 1000 м
[Sc As op]
+15.5 +5.9 53 +16 +17 1023.0 1012.3
15 18.09 ЮЗ 2 15 км 10/6 1000 м
[Sc As op]
+15.3 +6.4 55 +15 +15 1022.3 1011.6
18 18.09 З 1 10 км 10/0
[Ac As]
+13.9 +8.8 71 +14 +14 1022.5 1011.7 +16.2
21 18.09 СЗ 1 10 км 9/0
[Ac und]
+12.6 +10.2 85 +13 +13 1023.1 1012.3
00 19.09 С 1 10 км 8/0
[Ac As]
+11.1 +9.0 87 +11 +11 1023.2 1012.3
03 19.09 СЗ 1 10 км 9/6 1000 м
[Sc Ac As]
+10.7 +9.6 93 +10 +10 1023.1 1012.2
06 19.09 В 1 15 км 9/4 1000 м
[Sc Ac As]
+11.8 +7.0 72 +12 +12 1024.1 1013.2 +10.0
09 19.09 В 2 15 км 9/0
[Ac As]
+16.5 +3.0 40 +17 +20 1024.2 1013.5
12 19.09 СВ 2 15 км 5/0
[Ac trans]
+19.1 0.0 28 +20 +27 1023.4 1012.8
15 19.09 В 2 15 км 6/6 1000 м
[Sc]
+18.8 +2.0 33 +20 +20 1022.6 1012.0
18 19.09 С 1 10 км 4/4 1000 м
[Sc]
+12.3 +4.2 58 +13 +13 1024.0 1013.2 +20.1
21 19.09 СЗ 1 10 км ясно +7.1 +3.7 79 +6 +6 1025.9 1014.8
00 20.09 ЮЗ 1 10 км ясно +5.0 +3.2 88 +4 +4 1026.7 1015.5
03 20.09 З 1 10 км ясно +3.8 +2.4 91 +2 +2 1026.4 1015.2

 

Местоположение метеостанции Осиек-Чепин (Хорватия): широта 45.50 долгота 18.57 высота над уровнем моря 90 м.

В архиве по умолчанию представлена погода в Осиек-Чепине за последнюю неделю. Архивные данные за месяц целиком и за предыдущие месяцы, начиная с января 2011 года, Вы можете получить, выбрав интересующий диапазон дат из раскрывающегося списка и нажав кнопку "Ввод!".


*Определитесь, кто Вы:
робот инопланетянин человек

Внимание! Время в таблицах - всемирное. Для получения местного времени необходимо прибавить поправку, которая равна 1 ч.

Смотрите также архив погоды в соседних городах и на ближайших метеорологических станциях:

Погода в Осиек аэропорту (Хорватия) (20 км)
Погода в Градиште (Хорватия) (40 км)
Погода в Сомборе (Сербия) (54 км)
Погода в Славонски-Броде (Хорватия) (58 км)
Погода в Пече (Венгрия) (62 км)
Погода в Градачаце (Босния и Герцеговина) (70 км)
Погода в Байе (Венгрия) (83 км)
Погода в Сремска-Митровице (Сербия) (89 км)
Погода в Нови-Саде (Сербия) (102 км)
Погода в Даруваре (Хорватия) (105 км)

Пояснения к столбцам:

Ветер - указаны скорость ветра в м/с - средняя за 10 мин, порывы в срок и между сроками (в фигурных скобках) и направление, откуда дует ветер: С - северный, СВ - северо-восточный, В - восточный, ЮВ - юго-восточный, Ю - южный, ЮЗ - юго-западный, З - западный, СЗ - северо-западный.
Видимость - горизонтальная дальность видимости в метрах или километрах. При видимости от 1 до 10 км при отсутствии осадков обычно наблюдается дымка, при ухудшении видимости до 1 км и менее - туман. В сухую погоду видимость может ухудшаться дымом, пылью или мглою.
Явления - указаны атмосферные явления, наблюдавшиеся в срок или в последний час перед сроком; фигурными скобками обозначены явления, наблюдавшиеся между сроками (за 1-3 часа до срока); квадратными скобками обозначены град или гололедные отложения с указанием их диаметра в мм.
Облачность - указаны через наклонную черту общая и нижняя облачность в баллах и высота нижней границы облаков в метрах; квадратными скобками обозначены формы облаков: Ci - перистые, Cs - перисто-слоистые, Cc - перисто-кучевые, Ac - высококучевые, As - высокослоистые, Sc - слоисто-кучевые, Ns - слоисто-дождевые, Cu - кучевые, Cb - кучево-дождевые. Подробнее классификацию облаков см. в Атласе облаков (PDF).
T - Температура воздуха - температура, измеренная на высоте 2 м над землей.
Td - Температура точки росы - температура, при понижении до которой содержащийся в воздухе водяной пар достигнет насыщения.
f - Относительная влажность воздуха - влажноcть воздуха, измеренная на высоте 2 м над землей.
Te - Эффективная температура - температура, которую ощущает одетый по сезону человек в тени. Характеристика душности погоды. При расчете учитывается влияние влажности воздуха и скорости ветра на теплоощущения человека.
Tes - Эффективная температура на солнце - температура, которую ощущает человек, с поправкой на солнечный нагрев. Характеристика знойности погоды. Зависит от высоты солнца над горизонтом, облачности и скорости ветра. Ночью, в пасмурную погоду, а также при ветре 12 м/с и более поправка равна нулю.
P - Атмосферное давление - приведенное к уровню моря атмосферное давление.
Po - Атмосферное давление - измеренное на уровне метеостанции атмосферное давление.
Tmin - Минимальная температура - минимум температуры воздуха на высоте 2 м над землей.
Tmax - Максимальная температура - максимум температуры воздуха на высоте 2 м над землей.
R - Количество осадков - Количество выпавших осадков за период времени, мм. При наведении курсора мыши на число - период времени, за который выпало указанное количество осадков.
R24 - Количество осадков - Количество выпавших осадков за 24 часа, мм.
S - Снежный покров - Высота снежного покрова, см. При наведении курсора мыши на число - состояние снежного покрова и степень покрытия местности в баллах.